Regional Weather Roundup
Issued by NWS State College, PA

Home | Current Version | Previous Version | Text Only | Print | Product List | Glossary On
Versions: 1 2 3 4 5 6 7 8 9 10 11 12 13 14 15 16 17 18 19 20 21 22 23 24 25 26 27 28 29 30 31 32 33 34 35 36 37 38 39 40 41 42 43 44 45 46 47 48 49 50
000
ASUS41 KCTP 011703
RWRCTP

REGIONAL WEATHER ROUNDUP
NATIONAL WEATHER SERVICE STATE COLLEGE PA
1200 PM EST SUN MAR 01 2015

Note: "fair" indicates few or no clouds below 12,000 feet with no
significant weather and/or obstructions to visibility.

* = STATION THAT DOES NOT REPORT PRECIPITATION /E.G. RAIN...SNOW...ETC/
    THUNDER OR FOG.

PAZ002>004-007>009-013>016-020>023-029>032-011800-
WESTERN PENNSYLVANIA

CITY           SKY/WX    TMP DP  RH WIND       PRES   REMARKS
ERIE           CLOUDY    30  23  75 SW7       30.32F
MEADVILLE      LGT SNOW  27  23  85 S6        30.28F
FRANKLIN*      CLOUDY    28  25  86 SW7       30.30F
NEW CASTLE     LGT SNOW  31  29  92 CALM      30.33F FOG
BEAVER COUNTY  LGT SNOW  34  32  93 S9        30.31F
BUTLER*        CLOUDY    34  30  86 SW8       30.33F VSB 1
PITTSBURGH INT LGT SNOW  33  32  96 S9        30.32F VSB 1
PITTSBURGH     SNOW      33  29  85 S9        30.32F VSB 1/2
INDIANA*       FOG       34  34 100 SW7       30.36F VSB 3/4
LATROBE        LGT SNOW  32  32 100 SW7       30.36F
WASHINGTON CO* CLOUDY    34  32  93 S3        30.35F
$$

PAZ004>006-010>012-017>019-024>028-033>037-041-042-045-046-049>053-011800-
CENTRAL PENNSYLVANIA

CITY           SKY/WX    TMP DP  RH WIND       PRES   REMARKS
BRADFORD       LGT SNOW  24  20  84 VRB5      30.26F FOG
DUBOIS         LGT SNOW  30  27  88 VRB5      30.28F VSB 1
CLEARFIELD     SNOW      24  20  84 N5        30.34F VSB 1/2
JOHNSTOWN      SNOW      31  29  92 SW6       30.29F VSB 1/2
ALTOONA        LGT SNOW  24  21  88 SW9       30.38F VSB 1   WCI  14
STATE COLLEGE  LGT SNOW  25  19  80 SW7       30.39F VSB 1
WILLIAMSPORT   LGT SNOW  23  16  74 NE6       30.47F
SELINSGROVE    LGT SNOW  25  19  78 S8        30.50S
FT INDIANTOWN  LGT SNOW  23  20  89 S3        30.52F FOG
CAPITAL CITY   LGT SNOW  24  21  88 E5        30.53F FOG
HARRISBURG     LGT SNOW  26  21  81 SE5       30.53F
YORK           LGT SNOW  25  21  85 SW5       30.51F FOG
$$

PAZ038>040-043-044-047-048-054-055-060>062-067>071-011800-
EASTERN PENNSYLVANIA

CITY           SKY/WX    TMP DP  RH WIND       PRES   REMARKS
SCRANTON       LGT SNOW  24  15  68 SW8       30.44F
MOUNT POCONO   LGT SNOW  18  13  80 S9        30.39F WCI   7
ALLENTOWN      LGT SNOW  23  18  80 SW3       30.54F VSB 3/4
QUAKERTOWN*    CLOUDY    23  19  86 S5        30.54F VSB 3/4
READING        LGT SNOW  23  20  88 S5        30.54F VSB 3/4
LANCASTER      LGT SNOW  23  20  88 SE6       30.53F VSB 1
COATESVILLE    LGT SNOW  25  21  86 S5        30.52F
POTTSTOWN      LGT SNOW  23  20  88 S3        30.56F VSB 1
BLUE BELL      CLOUDY    27  21  80 S5        30.56F VSB 1
DOYLESTOWN     LGT SNOW  22  20  92 S6        30.54F FOG     WCI  14
WILLOW GROVE   NOT AVBL
NORTH PHILA    LGT SNOW  27  17  66 S6        30.60F
PHILADELPHIA   LGT SNOW  26  21  81 S6        30.59F
$$


USA.gov is the U.S. government's official web portal to all federal, state and local government web resources and services.